{"data":{"norad_id":69174,"intl_designator":"2026-111AC","name":"STARLINK-37333","alt_names":[],"object_type":"PAYLOAD","status":"ACTIVE","operator":null,"country":"US","launch_date":"2026-05-21","launch_site_code":"AFETR","launch_vehicle":null,"mission":null,"orbit_class":"UNKNOWN","rcs_meters":null,"size_class":null,"mass_kg":null,"dimensions":null,"purposes":["comms"],"wikipedia_slug":null,"has_3d_model":false,"image_url":null,"decayed_at":null,"tle_current":{"epoch":"2026-09-19T23:48:11.978784Z","epoch_age_seconds":70883,"freshness":"FRESH","line1":"1 69174U 26111AC  26262.99180531  .00015387  00000+0  46552-3 0  9990","line2":"2 69174  53.1591  67.8899 0001430  94.0134 266.1032 15.34405253 18820","mean_motion":15.34405253,"eccentricity":0.000143,"inclination_deg":53.1591,"raan_deg":67.8899,"arg_perigee_deg":94.0134,"mean_anomaly_deg":266.1032,"bstar":0.00046552,"rev_number":1882,"period_min":93.84743679576,"perigee_km":461.70938930693,"apogee_km":463.66586515032,"semimajor_km":6840.8246272286,"source":"CELESTRAK","updated_at":"2026-09-20T09:00:44.094781Z"}}}